BYNCTR-WX Weather Reports


time (UTC)temp
C
wind
direction
speed
KPH
gust
KPH
rain 1hr
cm
rain 24hr
cm
rain mn
cm
humidity
%
barometer
mb
20260901161605 29 243 12.9 0.0 0.00 0.00 0.00 73 987.4
20260901160106 28 244 11.3 0.0 0.00 0.00 0.00 73 987.4
20260901154605 28 241 12.9 0.0 0.00 0.00 0.00 82 987.1
20260901153101 28 241 11.3 0.0 0.00 0.00 0.00 82 987.1
20260901151602 27 248 9.7 0.0 0.00 0.00 0.00 82 987.1
20260901144600 26 245 9.7 0.0 0.00 0.00 0.00 90 986.3
20260901143106 26 236 8.0 0.0 0.00 0.00 0.00 85 987.5
20260901141606 25 230 8.0 0.0 0.00 0.00 0.00 82 988.0
20260901140106 25 222 9.7 0.0 0.00 0.00 0.00 82 988.0
20260901134607 24 226 9.7 0.0 0.00 0.00 0.00 87 987.3
20260901133106 23 217 9.7 0.0 0.00 0.00 0.00 87 987.3
20260901131605 23 203 11.3 0.0 0.00 0.00 0.00 87 987.3
20260901130110 23 193 11.3 0.0 0.00 0.00 0.00 87 987.3
20260901124627 22 192 8.0 0.0 0.00 0.00 0.00 91 986.7
20260901123106 22 188 6.4 0.0 0.00 0.00 0.00 90 986.5
20260901121605 21 177 6.4 0.0 0.00 0.00 0.00 90 986.5
20260901120113 21 180 8.0 0.0 0.00 0.00 0.00 90 986.5
20260901114606 20 183 6.4 0.0 0.00 0.00 0.00 90 985.7
20260901113111 20 185 6.4 0.0 0.00 0.00 0.00 89 986.1
20260901111606 20 185 6.4 0.0 0.00 0.00 0.00 89 986.1
20260901110110 20 189 8.0 0.0 0.00 0.00 0.00 89 986.1
20260901104609 20 185 8.0 0.0 0.00 0.00 0.00 88 986.5
20260901103110 20 185 8.0 0.0 0.00 0.00 0.00 88 986.5
20260901101613 20 189 8.0 0.0 0.00 0.00 0.00 88 986.5
20260901100113 20 180 8.0 0.0 0.00 0.00 0.00 88 986.5
20260901094606 21 192 8.0 0.0 0.00 0.00 0.00 88 985.5
20260901093111 21 189 8.0 0.0 0.00 0.00 0.00 88 985.8
20260901091612 21 199 8.0 0.0 0.00 0.00 0.00 88 985.7
20260901090111 21 202 8.0 0.0 0.00 0.00 0.00 88 985.7
20260901084605 21 208 9.7 0.0 0.00 0.00 0.00 89 985.4
20260901083110 21 207 9.7 0.0 0.00 0.00 0.00 89 985.0
20260901081611 21 214 9.7 0.0 0.00 0.00 0.00 89 985.0
20260901080107 21 207 9.7 0.0 0.00 0.00 0.00 89 985.5
20260901074611 21 207 9.7 0.0 0.00 0.00 0.00 90 985.2
20260901073110 21 205 9.7 0.0 0.00 0.00 0.00 90 985.2
20260901071605 21 207 9.7 0.0 0.00 0.00 0.00 90 985.2
20260901070105 21 203 8.0 0.0 0.00 0.00 0.00 90 985.2
20260901064612 21 214 8.0 0.0 0.00 0.00 0.00 90 985.4
20260901063059 21 215 8.0 0.0 0.00 0.00 0.00 90 985.4
20260901061606 21 218 9.7 0.0 0.00 0.00 0.00 90 985.4
20260901060110 21 207 9.7 0.0 0.00 0.00 0.00 90 985.4
20260901054610 21 204 11.3 0.0 0.00 0.00 0.00 88 985.6
20260901053111 21 188 9.7 0.0 0.00 0.00 0.00 88 985.4
20260901051605 21 192 8.0 0.0 0.00 0.00 0.00 88 985.4
20260901050116 21 204 6.4 0.0 0.00 0.00 0.00 88 985.4
20260901044610 21 196 8.0 0.0 0.00 0.00 0.00 82 985.7
20260901043105 22 209 8.0 0.0 0.00 0.00 0.00 86 985.5
20260901041609 22 210 8.0 0.0 0.00 0.00 0.00 86 985.5
20260901040114 22 214 8.0 0.0 0.00 0.00 0.00 86 985.5
20260901034609 22 211 6.4 0.0 0.00 0.00 0.00 83 985.4
20260901033109 22 213 4.8 0.0 0.00 0.00 0.00 86 985.6
20260901031609 22 216 8.0 0.0 0.00 0.00 0.00 86 985.6
20260901030109 22 207 9.7 0.0 0.00 0.00 0.00 86 985.6
20260901024609 22 212 8.0 0.0 0.00 0.00 0.00 83 986.6
20260901023109 22 211 6.4 0.0 0.00 0.00 0.00 84 986.1
20260901021607 23 208 14.5 0.0 0.00 0.00 0.00 84 986.1
20260901020114 22 211 12.9 0.0 0.00 0.00 0.00 84 986.1
20260901014608 23 206 12.9 0.0 0.00 0.00 0.00 86 986.1
20260901013106 22 205 9.7 0.0 0.00 0.00 0.00 86 986.1
20260901011608 22 216 9.7 0.0 0.00 0.00 0.00 86 986.1
20260901010110 22 203 8.0 0.0 0.00 0.00 0.00 86 986.1
20260901004608 23 216 9.7 0.0 0.00 0.00 0.00 82 986.1
20260901003107 23 233 8.0 0.0 0.00 0.00 0.00 82 985.6
20260901001607 23 215 9.7 0.0 0.00 0.00 0.00 82 985.7
20260901000106 24 216 11.3 0.0 0.00 0.00 0.00 82 985.7
20260831234609 25 220 8.0 0.0 0.00 0.03 0.03 74 985.8
20260831233109 25 216 8.0 0.0 0.00 0.03 0.03 70 985.5
20260831231609 26 224 11.3 0.0 0.00 0.03 0.03 70 985.5
20260831230111 26 216 9.7 0.0 0.00 0.03 0.03 70 985.5
20260831224609 27 212 12.9 0.0 0.00 0.03 0.03 65 985.9
20260831223111 27 210 16.1 0.0 0.00 0.03 0.03 61 986.3
20260831221606 28 212 19.3 0.0 0.00 0.03 0.03 61 986.3
20260831220109 28 210 20.9 0.0 0.00 0.03 0.03 61 986.3
20260831214609 28 204 20.9 0.0 0.00 0.03 0.03 63 986.9
20260831213106 28 201 20.9 0.0 0.00 0.03 0.03 58 986.4
20260831211608 29 205 22.5 0.0 0.00 0.03 0.03 58 986.5
20260831210109 29 202 20.9 0.0 0.00 0.03 0.03 58 986.5
20260831204606 29 201 20.9 0.0 0.00 0.03 0.03 66 987.4
20260831203106 28 200 20.9 0.0 0.00 0.03 0.03 79 986.9
20260831201608 26 192 17.7 0.0 0.00 0.05 0.05 79 986.7
20260831200109 25 185 17.7 0.0 0.00 0.05 0.05 79 987.2
20260831194608 25 187 17.7 0.0 0.05 0.05 0.05 76 987.9
20260831193108 26 205 20.9 0.0 0.05 0.05 0.05 76 987.9
20260831191608 25 241 8.0 0.0 0.05 0.05 0.05 76 987.9
20260831190110 25 198 11.3 0.0 0.05 0.05 0.05 69 987.3
20260831184606 27 201 20.9 0.0 0.00 0.00 0.00 62 987.7
20260831183107 29 187 20.9 0.0 0.00 0.00 0.00 62 987.7
20260831181607 28 184 20.9 0.0 0.00 0.00 0.00 62 987.7
20260831180108 28 185 19.3 0.0 0.00 0.00 0.00 62 987.7
20260831174607 28 197 19.3 0.0 0.00 0.00 0.00 64 988.6
20260831173107 28 199 20.9 0.0 0.00 0.00 0.00 64 987.3
20260831171607 27 200 19.3 0.0 0.00 0.00 0.00 64 987.3
20260831170107 27 200 19.3 0.0 0.00 0.00 0.00 64 987.3
20260831164607 26 196 19.3 0.0 0.00 0.00 0.00 70 989.0
20260831163307 -17 0 0.0 0.0 0.00 0.00 0.00 100